Location: Lane
(33.5226°N, 79.8788°W)
Time: 05:53:04
(UTC+00:00)

Vanguard 2 - Pass Details

Date: 10 October 2022
Orbit: 553 x 2933 km, 32.9° (Epoch: 26 November)

Event Time Altitude Azimuth Distance (km) Brightness Sun altitude
Rises 16:42:08 0° 255° (WSW) 3,697 11.1 49.2°
Reaches altitude 10° 16:44:18 10° 254° (WSW) 2,970 10.7 49.3°
Maximum altitude 16:51:50 81° 168° (SSE) 1,586 10.4 49.5°
Drops below altitude 10° 17:04:52 10° 84° (E) 4,913 11.7 49.7°
Sets 17:09:30 0° 84° (E) 6,233 12.1 49.6°
